Location: Bellerive
(46.9237°N, 7.0223°E)
Time: 09:14:17
(UTC+00:00)

Cosmos 1455 - Pass Details

Date: 09 April 2020
Orbit: 499 x 523 km, 82.5° (Epoch: 23 May)

Event Time Altitude Azimuth Distance (km) Brightness Sun altitude
Exits shadow 19:56:17 15° 60° (ENE) 1,451 4.2 -17.1°
Drops below altitude 10° 19:57:33 10° 43° (NE) 1,755 4.8 -17.3°
Sets 20:00:11 0° 24° (NNE) 2,654 5.9 -17.6°
